www.pogodaiklimat.ru

Погода и климат >> Архив погоды >> Россия >> Якутия >> Югоренок


АРХИВ ПОГОДЫ в Югоренке

Время (UTC), дата Ветер
(напр.,м/с)
 
Видим.   Явления Облачность Т
(С)
Тd
(С)
f
(%)
Тe
(С)
Тes
(С)
Комфортность P
(гПа)
Po
(гПа)
Тmin
(С)
Tmax
(С)
R
(мм)
R24
(мм)
S
(см)
09 13.09 Ю 1 4000 м ливневой дождь 10/10 1000 м
[Cb cap]
+13.2 +12.8 97 +13 +13 997.7 953.8 +20.0 2
12 13.09 штиль 0 10 км слаб. ливневой дождь 10/10 1000 м
[Cb cap]
+12.1 +11.9 99 +11 +11 997.7 953.6
15 13.09 З 1 10 км слаб. ливневой дождь 10/10 1000 м
[Cb cap]
+11.1 +10.9 99 +11 +11 996.1 951.8
18 13.09 С 1 4000 м ливневой дождь 10/10 1000 м
[Cb cap]
+10.8 +10.6 99 +10 +10 994.4 950.2
21 13.09 СВ 1 4000 м ливневой дождь 10/10 1000 м
[Cb cap]
+10.4 +10.2 99 +10 +10 993.5 949.3 +10.1 14
00 14.09 Ю 1 10 км слаб. ливневой дождь 10/10 1000 м
[Cb cap]
+8.0 +6.9 93 +7 +7 994.4 949.8 +7.9
03 14.09 С 1 10 км слаб. ливневой дождь 10/10 1000 м
[Cb cap]
+4.6 +3.1 90 +3 +3 997.2 951.8
06 14.09 С 1 20 км слаб. ливневой дождь 10/10 1000 м
[Cb cap]
+3.3 +1.0 85 +2 +2 999.2 953.6
09 14.09 СЗ 3 20 км слаб. ливневой дождь 10/10 1000 м
[Cb cap]
+2.6 -0.4 81 -1 -1 1001.6 955.7 +10.4 13
12 14.09 СЗ 3
{11}
50 км {ливн. осадки} 10/10 1000 м
[Cb cap]
+2.9 -3.6 62 -1 -1 1003.2 957.2
15 14.09 СЗ 2 50 км 10/4 1000 м
[Cb cap As trans]
+3.4 -5.2 53 +1 +1 1003.4 957.6
18 14.09 С 1 50 км 10/0
[Ac As]
+3.2 -5.5 53 +2 +2 1003.5 957.7
21 14.09 С 1 50 км 9/3 1500 м
[Sc Ac As]
+2.5 -4.9 58 +1 +1 1003.9 957.9 +2.0 0.0
00 15.09 Ю 1 50 км 10/0
[Ac As]
+3.7 -6.4 48 +3 +4 1003.6 957.8 +1.7
03 15.09 Ю 1 50 км 10/0
[Ac As]
+6.1 -4.7 46 +6 +8 1003.0 957.6
06 15.09 штиль 0 50 км 10/0
[Ac As]
+8.4 -3.8 42 +8 +9 1002.0 957.0
09 15.09 С 1 50 км 8/0
[Ac trans Ci fib]
+6.4 -1.7 56 +6 +6 1002.8 957.5 +8.4
12 15.09 С 2 50 км 3/0
[Ci fib]
+0.6 -2.7 79 -3 -3 1005.0 958.6
15 15.09 штиль 0 50 км ясно -3.2 -8.4 67 -4 -4 1006.6 959.5
18 15.09 штиль 0 50 км ясно -5.4 -7.2 87 -6 -6 1007.4 959.9
21 15.09 В 2 20 км туман на расстоянии 3/0
[Ci fib]
-3.1 -4.5 90 -7 -7 1006.0 959.9 -5.5
00 16.09 С 1 50 км 10/10 1000 м
[Cb cap]
0.0 -2.0 86 -2 -2 1006.9 960.4
03 16.09 В 2 50 км 10/10 1000 м
[Cb cap]
+5.3 +0.1 69 +3 +3 1005.2 959.6
06 16.09 В 1 50 км {ливн. осадки} 10/10 1000 м
[Cb cap]
+4.6 +2.4 86 +3 +3 1004.6 958.9
09 16.09 Ю 1 4000 м ливневой дождь 10/10 1000 м
[Cb cap]
+4.4 +3.4 93 +3 +3 1004.1 958.4 +5.6 3
12 16.09 штиль 0 10 км слаб. ливневой дождь 10/10 1000 м
[Cb cap]
+2.8 +2.5 98 +2 +2 1003.3 957.4
15 16.09 СВ 1 50 км в посл. час ливневой дождь 10/10 1000 м
[Cb cap]
+4.4 +3.7 95 +3 +3 1001.9 956.3
18 16.09 ЮЗ 1 10 км туман на расстоянии {ливн. осадки} 8/5 1500 м
[Sc Ci fib]
+3.0 +2.8 99 +1 +1 1003.1 957.3
21 16.09 СВ 1 2000 м туман на расстоянии 5/3 1500 м
[Sc Ci fib]
-0.3 -0.3 100 -3 -3 1005.6 959.0 -0.4 14
00 17.09 штиль 0 20 км туман на расстоянии 3/3 1500 м
[Cu Sc]
+4.9 +3.5 91 +4 +7 1005.5 959.9
03 17.09 ЮВ 3 50 км 8/8 1000 м
[Cb cap]
+7.0 -0.8 58 +4 +5 1005.2 959.9
06 17.09 Ю 3 50 км 8/8 1000 м
[Cb cap]
+8.2 -1.5 50 +6 +6 1005.4 960.3
09 17.09 Ю 1 50 км 8/8 1500 м
[Sc]
+5.6 -2.4 56 +5 +5 1007.4 961.7 +8.4
12 17.09 Ю 1 50 км 8/8 1000 м
[Sc]
+3.0 -1.5 72 +2 +2 1008.8 962.8
15 17.09 штиль 0 50 км 6/6 1500 м
[Sc]
-0.8 -2.0 92 -2 -2 1010.3 963.5
18 17.09 СВ 1 50 км 10/10 1000 м
[Sc]
-0.5 -1.4 94 -3 -3 1011.0 964.2
21 17.09 штиль 0 50 км 10/10 1000 м
[Sc]
-0.3 -1.2 94 -2 -2 1012.4 965.5 -1.9
00 18.09 штиль 0 50 км 10/10 1000 м
[Cb cap]
+1.9 -0.9 82 +1 +1 1013.6 967.0
03 18.09 ЮЗ 2 50 км 10/10 1000 м
[Cb cap]
+4.8 -3.9 53 +3 +3 1013.7 967.6
06 18.09 Ю 1 50 км 6/6 1500 м
[Cu Sc]
+6.2 -3.4 50 +6 +7 1014.0 968.2
09 18.09 СЗ 1 50 км 3/3 1500 м
[Sc]
+3.4 -1.0 73 +2 +2 1015.6 969.2 +7.2
12 18.09 С 1 50 км 1/1 1500 м
[Sc]
-1.4 -3.9 83 -3 -3 1018.0 970.7
15 18.09 СЗ 1 50 км 3/0
[Ac cast]
-3.7 -5.1 90 -6 -6 1018.9 971.2
18 18.09 штиль 0 50 км 8/8 1500 м
[Sc]
-2.3 -3.2 94 -4 -4 1019.7 972.1
21 18.09 штиль 0 50 км 10/10 1500 м
[Sc]
-1.8 -3.4 89 -3 -3 1018.8 971.4 -4.0
00 19.09 Ю 1 50 км 1/0
[Ci fib]
+2.5 -2.7 69 +1 +5 1017.7 971.0
03 19.09 З 1 50 км 1/0
[Ci fib]
+7.8 -2.8 47 +8 +14 1015.9 970.2
06 19.09 Ю 1 50 км 1/0
[Ci fib]
+10.7 -1.9 41 +11 +14 1014.1 968.9
09 19.09 С 2 50 км ясно +6.0 -1.2 60 +4 +4 1013.8 968.0 +10.9
12 19.09 С 1 50 км ясно -0.3 -2.4 86 -2 -2 1015.6 968.4
15 19.09 СВ 2 50 км 3/0
[Ac trans]
-0.3 -2.1 88 -4 -4 1015.7 968.7
18 19.09 С 1 50 км 8/0
[Ac As]
-0.4 -1.9 90 -3 -3 1015.7 968.7
21 19.09 С 1 50 км 3/3 1500 м
[Sc]
-2.8 -3.8 93 -5 -5 1016.7 969.2 -2.9
00 20.09 ЮВ 2 50 км 10/1 1500 м
[Sc As trans Cs]
+2.6 -1.3 75 -0 +1 1016.2 969.6
03 20.09 ЮВ 1 50 км 10/3 1500 м
[Sc Ac trans Ci fib]
+10.4 +0.4 50 +10 +13 1014.0 968.8
06 20.09 З 2 50 км 10/5 1500 м
[Sc Ac lent Cs]
+16.3 +0.3 34 +17 +17 1012.8 968.1

 

Местоположение метеостанции Югоренок (Якутия, Россия): широта 59.77 долгота 137.60 высота над уровнем моря 384 м.

В архиве по умолчанию представлена погода в Югоренке за последнюю неделю. Архивные данные за месяц целиком и за предыдущие месяцы, начиная с января 2011 года, Вы можете получить, выбрав интересующий диапазон дат из раскрывающегося списка и нажав кнопку "Ввод!".


*Определитесь, кто Вы:
робот инопланетянин человек

Внимание! Время в таблицах - всемирное. Для получения местного времени необходимо прибавить поправку, которая равна 9 ч.

Смотрите также архив погоды в соседних городах и на ближайших метеорологических станциях:

Погода в Усть-Юдоме (Якутия, Россия) (156 км)
Погода в Усть-Мае (Якутия, Россия) (189 км)
Погода в Нелькане (Хабаровский край, Россия) (251 км)
Погода в Усть-Миле (Якутия, Россия) (259 км)
Погода в Охотском Перевозе (Якутия, Россия) (260 км)
Погода в Улье (Хабаровский край, Россия) (262 км)
Погода в Арке (Хабаровский край, Россия) (264 км)
Погода в Уеге (Хабаровский край, Россия) (301 км)
Погода в Охотске (Хабаровский край, Россия) (319 км)
Погода в Теплом Ключе (Якутия, Россия) (338 км)

Пояснения к столбцам:

Ветер - указаны скорость ветра в м/с - средняя за 10 мин, порывы в срок и между сроками (в фигурных скобках) и направление, откуда дует ветер: С - северный, СВ - северо-восточный, В - восточный, ЮВ - юго-восточный, Ю - южный, ЮЗ - юго-западный, З - западный, СЗ - северо-западный.
Видимость - горизонтальная дальность видимости в метрах или километрах. При видимости от 1 до 10 км при отсутствии осадков обычно наблюдается дымка, при ухудшении видимости до 1 км и менее - туман. В сухую погоду видимость может ухудшаться дымом, пылью или мглою.
Явления - указаны атмосферные явления, наблюдавшиеся в срок или в последний час перед сроком; фигурными скобками обозначены явления, наблюдавшиеся между сроками (за 1-3 часа до срока); квадратными скобками обозначены град или гололедные отложения с указанием их диаметра в мм.
Облачность - указаны через наклонную черту общая и нижняя облачность в баллах и высота нижней границы облаков в метрах; квадратными скобками обозначены формы облаков: Ci - перистые, Cs - перисто-слоистые, Cc - перисто-кучевые, Ac - высококучевые, As - высокослоистые, Sc - слоисто-кучевые, Ns - слоисто-дождевые, Cu - кучевые, Cb - кучево-дождевые. Подробнее классификацию облаков см. в Атласе облаков (PDF).
T - Температура воздуха - температура, измеренная на высоте 2 м над землей.
Td - Температура точки росы - температура, при понижении до которой содержащийся в воздухе водяной пар достигнет насыщения.
f - Относительная влажность воздуха - влажноcть воздуха, измеренная на высоте 2 м над землей.
Te - Эффективная температура - температура, которую ощущает одетый по сезону человек в тени. Характеристика душности погоды. При расчете учитывается влияние влажности воздуха и скорости ветра на теплоощущения человека.
Tes - Эффективная температура на солнце - температура, которую ощущает человек, с поправкой на солнечный нагрев. Характеристика знойности погоды. Зависит от высоты солнца над горизонтом, облачности и скорости ветра. Ночью, в пасмурную погоду, а также при ветре 12 м/с и более поправка равна нулю.
P - Атмосферное давление - приведенное к уровню моря атмосферное давление.
Po - Атмосферное давление - измеренное на уровне метеостанции атмосферное давление.
Tmin - Минимальная температура - минимум температуры воздуха на высоте 2 м над землей.
Tmax - Максимальная температура - максимум температуры воздуха на высоте 2 м над землей.
R - Количество осадков - Количество выпавших осадков за период времени, мм. При наведении курсора мыши на число - период времени, за который выпало указанное количество осадков.
R24 - Количество осадков - Количество выпавших осадков за 24 часа, мм.
S - Снежный покров - Высота снежного покрова, см. При наведении курсора мыши на число - состояние снежного покрова и степень покрытия местности в баллах.